Preview of NWS' New Version of Forecast
This preview is not operational and should not be used for support decisions.

Terminal Aerodrome Forecast (TAF)

Issued by National Weather Service (NWS)

                            
000
FTUS41 KGYX 201120
TAFRKD
TAF
KRKD 201120Z 2012/2112 28005KT P6SM FEW250=